This is the latest recevied weather packets stored in our database for station/object N3FWE. If no packets are shown the sender has not sent any weather packets the latest 10 day(s).
| Time | Temp. | Humidity | Pressure | Rain* | Wind** | Luminosity | Snow |
|---|---|---|---|---|---|---|---|
| 1787774413 | 29.44° C | 52% | 1017.7 hPa | 0 mm | - | - | - |
| 1787773812 | 28.89° C | 54% | 1017.7 hPa | 0 mm | - | - | - |
| 1787773213 | 28.89° C | 52% | 1017.9 hPa | 0 mm | - | - | - |
| 1787772616 | 29.44° C | 54% | 1017.9 hPa | 0 mm | - | - | - |
| 1787772013 | 28.33° C | 56% | 1018 hPa | 0 mm | - | - | - |
| 1787771412 | 27.78° C | 57% | 1018.2 hPa | 0 mm | - | - | - |
| 1787770814 | 27.78° C | 58% | 1018.2 hPa | 0 mm | - | - | - |
| 1787770212 | 28.33° C | 57% | 1018.4 hPa | 0 mm | - | - | - |
| 1787769612 | 28.89° C | 56% | 1018.4 hPa | 0 mm | - | - | - |
| 1787769013 | 28.33° C | 56% | 1018.4 hPa | 0 mm | - | - | - |
| 1787768413 | 28.33° C | 56% | 1018.6 hPa | 0 mm | - | - | - |
| 1787767814 | 28.89° C | 55% | 1018.8 hPa | 0 mm | - | - | - |
| 1787767214 | 28.33° C | 59% | 1018.8 hPa | 0 mm | - | - | - |
| 1787766614 | 28.33° C | 58% | 1019 hPa | 0 mm | - | - | - |
| 1787766014 | 27.22° C | 63% | 1019.4 hPa | 0 mm | - | - | - |
| 1787765414 | 27.78° C | 59% | 1019.5 hPa | 0 mm | - | - | - |
| 1787764814 | 28.89° C | 57% | 1019.5 hPa | 0 mm | - | - | - |
| 1787764232 | 27.78° C | 57% | 1019.6 hPa | 0 mm | - | - | - |
| 1787763613 | 27.22° C | 63% | 1019.6 hPa | 0 mm | - | - | - |
| 1787763013 | 27.22° C | 60% | 1019.8 hPa | 0 mm | - | - | - |
| 1787762412 | 26.67° C | 62% | 1019.8 hPa | 0 mm | - | - | - |
| 1787761812 | 26.67° C | 64% | 1019.8 hPa | 0 mm | - | - | - |
| 1787761213 | 26.11° C | 64% | 1020 hPa | 0 mm | - | - | - |
| 1787760613 | 26.11° C | 63% | 1020.2 hPa | 0 mm | - | - | - |
| 1787760016 | 26.11° C | 63% | 1020.3 hPa | 0 mm | - | - | - |
* Rain latest hour (hover to see other rain measurements)
** Current wind speed in m/s (hover to see current wind gust speed)